FW3111 Weather Reports


time (UTC)temp
C
wind
direction
speed
KPH
gust
KPH
rain 1hr
cm
rain 24hr
cm
rain mn
cm
humidity
%
barometer
mb
20260502194521 27 225 17.7 27.4 0.00 0.00 0.00 100 1010.5
20260502194020 27 252 11.3 32.2 0.00 0.00 0.00 100 1010.5
20260502193522 27 244 20.9 32.2 0.00 0.00 0.00 100 1010.6
20260502193019 28 252 11.3 24.1 0.00 0.00 0.00 100 1010.7
20260502192518 27 227 8.0 22.5 0.00 0.00 0.00 100 1010.9
20260502192018 27 252 11.3 29.0 0.00 0.00 0.00 100 1010.9
20260502191522 27 248 17.7 29.0 0.00 0.00 0.00 100 1011.1
20260502191016 27 274 6.4 25.7 0.00 0.00 0.00 100 1011.1
20260502190516 27 217 11.3 27.4 0.00 0.00 0.00 100 1011.2
20260502190016 26 257 9.7 30.6 0.00 0.00 0.00 100 1011.4
20260502185516 26 239 19.3 30.6 0.00 0.00 0.00 100 1011.5
20260502185014 27 218 9.7 17.7 0.00 0.00 0.00 100 1011.7
20260502184513 27 260 9.7 17.7 0.00 0.00 0.00 100 1011.8
20260502184013 27 240 4.8 17.7 0.00 0.00 0.00 100 1011.8
20260502183512 27 317 6.4 20.9 0.00 0.00 0.00 100 1012.0
20260502183012 28 184 6.4 20.9 0.00 0.00 0.00 100 1012.1
20260502182511 28 169 6.4 16.1 0.00 0.00 0.00 100 1012.1
20260502182010 27 115 8.0 16.1 0.00 0.00 0.00 100 1012.3
20260502181509 28 264 4.8 14.5 0.00 0.00 0.00 100 1012.2
20260502181011 27 271 4.8 17.7 0.00 0.00 0.00 100 1012.4
20260502180507 27 155 8.0 17.7 0.00 0.00 0.00 100 1012.5
20260502164053 24 209 9.7 25.7 0.00 0.00 0.00 100 1014.2
20260502163553 24 277 12.9 25.7 0.00 0.00 0.00 100 1014.2
20260502163058 24 115 8.0 19.3 0.00 0.00 0.00 100 1014.4
20260502162552 24 126 6.4 19.3 0.00 0.00 0.00 100 1014.6
20260502162052 24 128 9.7 20.9 0.00 0.00 0.00 100 1014.7
20260502161551 24 165 11.3 20.9 0.00 0.00 0.00 100 1014.8
20260502161048 23 158 4.8 19.3 0.00 0.00 0.00 100 1014.8
20260502160547 23 279 4.8 17.7 0.00 0.00 0.00 100 1015.0
20260502152039 22 170 4.8 12.9 0.00 0.00 0.00 100 1015.4
20260502151548 21 161 1.6 16.1 0.00 0.00 0.00 100 1015.4
20260502151037 21 257 8.0 16.1 0.00 0.00 0.00 100 1015.4
20260502150535 21 225 4.8 14.5 0.00 0.00 0.00 100 1015.4
20260502130508 17 135 6.4 12.9 0.00 0.00 0.00 100 1015.1
20260502123501 16 140 3.2 11.3 0.00 0.00 0.00 100 1014.7
20260502123101 16 130 3.2 9.7 0.00 0.00 0.00 100 1014.7
20260502122604 16 165 6.4 14.5 0.00 0.00 0.00 100 1014.7
20260502122057 16 138 4.8 14.5 0.00 0.00 0.00 100 1014.6
20260502121557 16 153 4.8 12.9 0.00 0.00 0.00 100 1014.5
20260502121058 16 155 4.8 14.5 0.00 0.00 0.00 100 1014.5
20260502120556 16 134 6.4 16.1 0.00 0.00 0.00 100 1014.3
20260502115554 16 210 9.7 19.3 0.00 0.00 0.00 100 1014.4
20260502115053 16 184 8.0 19.3 0.00 0.00 0.00 100 1014.2
20260502114552 16 218 11.3 22.5 0.00 0.00 0.00 100 1014.2
20260502114052 16 188 9.7 22.5 0.00 0.00 0.00 100 1014.2
20260502113551 16 195 9.7 17.7 0.00 0.00 0.00 100 1014.2
20260502113102 16 188 11.3 17.7 0.00 0.00 0.00 100 1014.2
20260502112551 16 198 11.3 22.5 0.00 0.00 0.00 100 1014.1
20260502112052 16 194 12.9 20.9 0.00 0.00 0.00 100 1014.1
20260502111550 16 183 12.9 20.9 0.00 0.00 0.00 100 1014.1
20260502111052 15 199 8.0 17.7 0.00 0.00 0.00 100 1014.0
20260502110550 15 196 9.7 16.1 0.00 0.00 0.00 100 1014.0
20260502110050 15 213 8.0 16.1 0.00 0.00 0.00 100 1014.0
20260502105550 15 173 9.7 16.1 0.00 0.00 0.00 100 1013.9
20260502105050 15 213 6.4 24.1 0.00 0.00 0.00 100 1013.7
20260502104601 15 169 9.7 24.1 0.00 0.00 0.00 100 1013.7
20260502104050 15 199 9.7 20.9 0.00 0.00 0.00 100 1013.7
20260502103550 15 205 12.9 17.7 0.00 0.00 0.00 100 1013.7
20260502103050 15 168 12.9 24.1 0.00 0.00 0.00 100 1013.6
20260502102554 15 185 12.9 24.1 0.00 0.00 0.00 100 1013.5
20260502102049 15 216 12.9 24.1 0.00 0.00 0.00 100 1013.6
20260502101604 15 156 12.9 20.9 0.00 0.00 0.00 100 1013.5
20260502101048 15 179 12.9 20.9 0.00 0.00 0.00 100 1013.5
20260502100549 15 167 12.9 20.9 0.00 0.00 0.00 100 1013.5
20260502091046 15 229 12.9 24.1 0.00 0.00 0.00 100 1013.0
20260502090546 15 200 14.5 22.5 0.00 0.00 0.00 100 1013.1
20260502071532 16 177 8.0 25.7 0.00 0.00 0.00 100 1013.7
20260502071031 15 188 11.3 25.7 0.00 0.00 0.00 100 1013.8
20260502070531 16 229 11.3 29.0 0.00 0.00 0.00 100 1013.9
20260502070052 16 180 17.7 29.0 0.00 0.00 0.00 100 1013.8
20260502065531 16 182 12.9 27.4 0.00 0.00 0.00 100 1013.9
20260502065033 16 198 14.5 27.4 0.00 0.00 0.00 100 1013.9
20260502064530 16 178 16.1 24.1 0.00 0.00 0.00 100 1013.9
20260502064030 16 196 16.1 24.1 0.00 0.00 0.00 100 1014.0
20260502063530 16 188 12.9 24.1 0.00 0.00 0.00 100 1013.9
20260502063033 16 202 16.1 22.5 0.00 0.00 0.00 100 1014.1
20260502062533 16 215 14.5 25.7 0.00 0.00 0.00 100 1014.1
20260502062028 16 192 14.5 27.4 0.00 0.00 0.00 100 1014.1
20260502061527 16 188 16.1 27.4 0.00 0.00 0.00 100 1014.0
20260502061026 16 191 17.7 32.2 0.00 0.00 0.00 100 1014.1
20260502060527 16 183 17.7 33.8 0.00 0.00 0.00 100 1014.1
20260502060036 16 200 19.3 33.8 0.00 0.00 0.00 100 1014.0
20260502055524 16 238 16.1 25.7 0.00 0.00 0.00 100 1014.1
20260502055023 16 211 17.7 30.6 0.00 0.00 0.00 100 1014.1
20260502054532 16 214 17.7 27.4 0.00 0.00 0.00 100 1014.1
20260502054020 16 223 16.1 27.4 0.00 0.00 0.00 100 1014.2
20260502053519 16 220 12.9 25.7 0.00 0.00 0.00 100 1014.2
20260502053018 16 188 16.1 27.4 0.00 0.00 0.00 100 1014.3
20260502052519 16 202 12.9 27.4 0.00 0.00 0.00 100 1014.4
20260502052014 16 192 12.9 22.5 0.00 0.00 0.00 100 1014.4
20260502051513 16 187 14.5 27.4 0.00 0.00 0.00 100 1014.5
20260502051020 16 221 17.7 27.4 0.00 0.00 0.00 100 1014.5
20260502050512 16 182 12.9 24.1 0.00 0.00 0.00 100 1014.6
20260502050017 16 186 12.9 22.5 0.00 0.00 0.00 100 1014.6
20260502045510 16 182 12.9 27.4 0.00 0.00 0.00 100 1014.6
20260502045014 16 185 12.9 27.4 0.00 0.00 0.00 100 1014.6
20260502044510 16 189 16.1 27.4 0.00 0.00 0.00 100 1014.6
20260502044008 16 196 14.5 22.5 0.00 0.00 0.00 100 1014.8
20260502043513 16 176 14.5 22.5 0.00 0.00 0.00 100 1014.8
20260502043008 16 207 9.7 25.7 0.00 0.00 0.00 100 1014.7
20260502042507 16 209 11.3 25.7 0.00 0.00 0.00 100 1014.6
20260502042008 16 153 11.3 24.1 0.00 0.00 0.00 100 1014.5
20260502041519 16 182 8.0 19.3 0.00 0.00 0.00 100 1014.6
20260502041005 16 173 9.7 19.3 0.00 0.00 0.00 100 1014.6
20260502040505 16 182 8.0 20.9 0.00 0.00 0.00 100 1014.5
20260502040005 16 119 9.7 22.5 0.00 0.00 0.00 100 1014.6
20260502035505 16 172 11.3 30.6 0.00 0.00 0.00 100 1014.7
20260502035004 16 149 11.3 30.6 0.00 0.00 0.00 100 1014.6
20260502034504 16 152 14.5 25.7 0.00 0.00 0.00 100 1014.6
20260502034005 16 184 9.7 29.0 0.00 0.00 0.00 100 1014.5
20260502033503 16 172 14.5 30.6 0.00 0.00 0.00 100 1014.4
20260502033000 16 153 16.1 30.6 0.00 0.00 0.00 100 1014.3
20260502032600 16 136 14.5 25.7 0.00 0.00 0.00 100 1014.2
20260502032059 17 218 14.5 27.4 0.00 0.00 0.00 100 1014.1
20260502031558 17 152 12.9 27.4 0.00 0.00 0.00 100 1014.0
20260502031058 17 187 9.7 19.3 0.00 0.00 0.00 100 1013.9
20260502030557 17 142 12.9 32.2 0.00 0.00 0.00 100 1013.6
20260502030117 17 172 9.7 32.2 0.00 0.00 0.00 100 1013.6
20260502025557 17 190 12.9 25.7 0.00 0.00 0.00 100 1013.7
20260502025057 17 156 11.3 24.1 0.00 0.00 0.00 100 1013.5
20260502024604 17 134 12.9 29.0 0.00 0.00 0.00 100 1013.5
20260502024055 17 198 17.7 29.0 0.00 0.00 0.00 100 1013.4
20260502023554 17 181 14.5 24.1 0.00 0.00 0.00 100 1013.3
20260502023127 17 136 11.3 24.1 0.00 0.00 0.00 100 1013.2
20260502022554 17 149 11.3 25.7 0.00 0.00 0.00 100 1013.1
20260502022051 17 174 11.3 25.7 0.00 0.00 0.00 100 1013.1
20260502021552 17 105 14.5 25.7 0.00 0.00 0.00 100 1012.8
20260502021050 17 161 12.9 27.4 0.00 0.00 0.00 100 1012.8
20260502020550 17 197 14.5 27.4 0.00 0.00 0.00 100 1012.8
20260502020049 17 109 11.3 29.0 0.00 0.00 0.00 100 1012.8
20260502015552 17 142 12.9 29.0 0.00 0.00 0.00 100 1012.8
20260502015049 17 166 9.7 25.7 0.00 0.00 0.00 100 1012.6
20260502014600 18 195 11.3 19.3 0.00 0.00 0.00 100 1012.6
20260502014048 18 142 8.0 17.7 0.00 0.00 0.00 100 1012.5
20260502013548 18 130 8.0 22.5 0.00 0.00 0.00 100 1012.3
20260502013055 18 143 11.3 22.5 0.00 0.00 0.00 100 1012.3
20260502012547 18 132 11.3 27.4 0.00 0.00 0.00 100 1012.1
20260502012047 18 140 12.9 27.4 0.00 0.00 0.00 100 1012.1
20260502011603 18 182 6.4 19.3 0.00 0.00 0.00 100 1011.9
20260502011046 18 188 11.3 20.9 0.00 0.00 0.00 100 1011.9
20260502010546 18 180 12.9 20.9 0.00 0.00 0.00 100 1011.8
20260502010047 18 166 9.7 19.3 0.00 0.00 0.00 100 1011.7
20260502005546 18 178 12.9 19.3 0.00 0.00 0.00 100 1011.5
20260502005046 18 208 8.0 25.7 0.00 0.00 0.00 100 1011.5
20260502004548 18 153 9.7 27.4 0.00 0.00 0.00 100 1011.5
20260502004045 18 134 14.5 30.6 0.00 0.00 0.00 100 1011.5
20260502003544 18 150 9.7 30.6 0.00 0.00 0.00 100 1011.5
20260502003046 18 196 12.9 29.0 0.00 0.00 0.00 100 1011.4
20260502002545 18 127 8.0 22.5 0.00 0.00 0.00 100 1011.1
20260502002045 18 119 12.9 22.5 0.00 0.00 0.00 100 1010.9
20260502001553 19 175 11.3 24.1 0.00 0.00 0.00 100 1010.7
20260502001044 19 173 14.5 24.1 0.00 0.00 0.00 100 1010.6
20260502000543 19 138 12.9 33.8 0.00 0.00 0.00 100 1010.5
20260502000057 20 150 9.7 27.4 0.00 0.00 0.00 100 1010.4
20260501235542 20 128 11.3 27.4 0.00 0.00 0.00 100 1010.2
20260501235043 20 192 12.9 25.7 0.00 0.00 0.00 100 1010.1
20260501234543 20 155 8.0 19.3 0.00 0.00 0.00 100 1009.9
20260501234042 20 155 12.9 20.9 0.00 0.00 0.00 100 1009.9
20260501233543 20 158 11.3 22.5 0.00 0.00 0.00 100 1009.7
20260501233100 20 185 12.9 22.5 0.00 0.00 0.00 100 1009.6
20260501232543 21 133 11.3 20.9 0.00 0.00 0.00 100 1009.6
20260501232044 21 187 8.0 25.7 0.00 0.00 0.00 100 1009.4
20260501231550 21 180 14.5 30.6 0.00 0.00 0.00 100 1009.4
20260501231043 21 158 12.9 32.2 0.00 0.00 0.00 100 1009.5
20260501230541 21 126 16.1 30.6 0.00 0.00 0.00 100 1009.5
20260501230110 22 182 16.1 29.0 0.00 0.00 0.00 100 1009.4
20260501225540 22 189 8.0 24.1 0.00 0.00 0.00 100 1009.2
20260501225040 22 196 14.5 22.5 0.00 0.00 0.00 100 1009.2
20260501224554 23 129 12.9 25.7 0.00 0.00 0.00 100 1009.1
20260501224040 23 141 8.0 25.7 0.00 0.00 0.00 100 1009.0
20260501223540 23 232 11.3 19.3 0.00 0.00 0.00 100 1008.9
20260501223043 23 148 9.7 24.1 0.00 0.00 0.00 100 1008.9
20260501222541 23 190 11.3 27.4 0.00 0.00 0.00 100 1008.9
20260501222041 23 199 11.3 25.7 0.00 0.00 0.00 100 1008.9
20260501221539 23 226 12.9 27.4 0.00 0.00 0.00 100 1008.9
20260501221038 23 217 11.3 38.6 0.00 0.00 0.00 100 1008.8
20260501220539 23 284 4.8 35.4 0.00 0.00 0.00 100 1008.8
20260501220041 23 189 9.7 35.4 0.00 0.00 0.00 100 1008.8
20260501215540 23 249 16.1 33.8 0.00 0.00 0.00 100 1008.7
20260501215038 23 261 8.0 29.0 0.00 0.00 0.00 100 1008.6
20260501214538 23 178 14.5 33.8 0.00 0.00 0.00 100 1008.7
20260501214036 24 185 12.9 29.0 0.00 0.00 0.00 100 1008.5
20260501213536 24 238 8.0 27.4 0.00 0.00 0.00 100 1008.6
20260501213036 24 184 4.8 24.1 0.00 0.00 0.00 100 1008.6
20260501212535 24 167 8.0 27.4 0.00 0.00 0.00 100 1008.6
20260501212035 23 230 14.5 27.4 0.00 0.00 0.00 100 1008.7
20260501211537 24 212 8.0 22.5 0.00 0.00 0.00 100 1008.9
20260501211037 24 237 11.3 22.5 0.00 0.00 0.00 100 1008.9
20260501210534 24 190 8.0 30.6 0.00 0.00 0.00 100 1009.0
20260501210037 24 204 12.9 24.1 0.00 0.00 0.00 100 1009.1
20260501205536 23 247 11.3 29.0 0.00 0.00 0.00 100 1009.1
20260501205034 23 233 17.7 29.0 0.00 0.00 0.00 100 1009.2
20260501204535 23 200 14.5 29.0 0.00 0.00 0.00 100 1009.2
20260501204034 23 223 14.5 27.4 0.00 0.00 0.00 100 1009.1
20260501203532 23 181 9.7 27.4 0.00 0.00 0.00 100 1009.2
20260501203032 23 163 11.3 25.7 0.00 0.00 0.00 100 1009.2
20260501202532 23 197 9.7 22.5 0.00 0.00 0.00 100 1009.1
20260501202033 23 155 9.7 24.1 0.00 0.00 0.00 100 1009.1
20260501201530 23 141 8.0 19.3 0.00 0.00 0.00 100 1009.2
20260501201032 23 170 8.0 24.1 0.00 0.00 0.00 100 1009.2
20260501200532 23 107 11.3 24.1 0.00 0.00 0.00 100 1009.2
20260501200030 24 172 8.0 19.3 0.00 0.00 0.00 100 1009.4
20260501195529 25 189 11.3 24.1 0.00 0.00 0.00 100 1009.4
20260501195029 25 138 12.9 25.7 0.00 0.00 0.00 100 1009.6